Regional Weather Roundup
Issued by NWS

Home | Current Version | Previous Version | Text Only | Print | Product List | Glossary Off
Versions: 1 2 3 4 5 6 7 8 9 10 11 12 13 14 15 16 17 18 19 20 21 22 23 24 25 26 27 28 29 30 31 32 33 34 35 36 37 38 39 40 41 42 43 44 45 46 47 48 49 50

000
ASUS43 KLOT 241910
RWRIL

ILLINOIS REGIONAL WEATHER ROUNDUP
NATIONAL WEATHER SERVICE CHICAGO/ROMEOVILLE IL
100 PM CST MON NOV 24 2014

NOTE: "FAIR" INDICATES FEW OR NO CLOUDS BELOW 12,000 FEET WITH NO
SIGNIFICANT WEATHER AND/OR OBSTRUCTIONS TO VISIBILITY.

* THESE STATIONS ARE NOT UNDER NWS QUALITY CONTROL. THEY ALSO MAY NOT
  REPORT WEATHER SUCH AS PRECIPITATION OR FOG.

ILZ001-002-007-009-015-016-024-242000-
NORTHWEST ILLINOIS

CITY           SKY/WX    TMP DP  RH WIND       PRES   REMARKS
MOLINE         MIX PCPN  28  23  81 W25       29.52R WCI  13
STERLING*      CLOUDY   N/A N/A N/A W26G33    29.47R
SAVANNA*       CLOUDY    28  24  82 W14G23    29.46R WCI  17
$$

ILZ003-004-008-010-011-017-018-242000-
NORTH CENTRAL ILLINOIS

CITY           SKY/WX    TMP DP  RH WIND       PRES   REMARKS
ROCKFORD       SNOW      29  26  89 W22G33    29.39R VSB 1/2 WCI  15
FREEPORT*      LGT SNOW  27  25  92 W21G28    29.40R VSB 3/4 WCI  14
ROCHELLE*      LGT SNOW  28  26  94 W24G36    29.42R VSB 3/4 WCI  14
DE KALB*       CLOUDY    28  26  91 W28G39    29.39R WCI  13
PERU*          LGT SNOW  31  29  89 W32G39    29.49R WCI  16
$$

ILZ005-006-012>014-019>023-242000-
NORTHEAST ILLINOIS

CITY           SKY/WX    TMP DP  RH WIND       PRES   REMARKS
CHICAGO-OHARE  LGT SNOW  31  28  89 W22G33    29.36R VSB 1   WCI  18
CHICAGO-MIDWAY LGT SNOW  33  29  85 W29G43    29.40R FOG     WCI  19
AURORA         SNOW      31  27  85 W25G36    29.41R VSB 1/2 WCI  17
LANSING*       CLOUDY    33  30  88 W21G40    29.41R WCI  21
JOLIET*        CLOUDY    32  28  86 W21       29.44R WCI  20
WAUKEGAN       SNOW      31  29  92 SW13G24   29.29R VSB 1/4 WCI  21
DUPAGE AIRPORT LGT SNOW  31  27  85 SW25G45   29.39R VSB 1   WCI  17
KANKAKEE*      LGT SNOW  33  31  90 W30G37    29.49R WCI  19
WHEELING       LGT SNOW  31  29  92 SW18G28   29.37R VSB 3/4 WCI  19
MORRIS*        CLOUDY    32  30  91 W28G40    29.44R WCI  18
ROMEOVILLE*    LGT SNOW  32  31  96 W24G32    29.42R WCI  19
NORTHERLY ISL    N/A     31  31 100 W18         N/A  WCI  19
$$

LMZ740>746-242000-
SOUTHERN LAKE MICHIGAN

STATION/POSITION SKY/WX   TEMP    WIND        PRES    VSBY  WAVE
                          AIR SEA DIR/SP/G                  HT/PER
                          (F)     (DEG/KT/KT) (MB)    (MI)  (FT/S)
SOUTHERN BUOY              35 42  230/ 31/ 37  989.5R         6/ 5
WAUKEGAN HARBOR            31     250/ 20/ 29   N/A
HARRISON CRIB              31     240/ 27/ 38   N/A
BURNHAM HARBOR             31     220/ 14/ 22   N/A
CALUMET HARBOR             32     220/ 15/ 22  994.3R
MICHIGAN CITY              34     210/ 31/ 42   N/A
$$

ILZ025>027-034>036-040-047-049-050-058-095>099-242000-
WEST-CENTRAL ILLINOIS

CITY           SKY/WX    TMP DP  RH WIND       PRES   REMARKS
QUINCY         CLOUDY    33  25  72 W18G25    29.66R WCI  22
GALESBURG*     CLOUDY    28  27  93 W21G31    29.57R FOG     WCI  15
MACOMB*        CLOUDY    31  27  84 W22G33    29.62R WCI  18
JACKSONVILLE*  CLOUDY    36  28  73 W17G24    29.65R WCI  26
PITTSFIELD*    CLOUDY    36  28  75 W14G22    29.67R WCI  27
$$

ILZ028>032-037-038-041>044-048-051>054-059>061-242000-
CENTRAL ILLINOIS

CITY           SKY/WX    TMP DP  RH WIND       PRES   REMARKS
PONTIAC        CLOUDY    33  30  90 W31G41    29.52R WCI  19
BLOOMINGTON    MIX PCPN  32  29  89 W24G30    29.56R WCI  19
DECATUR        CLOUDY    35  26  69 W20G29    29.62R WCI  24
PEORIA         CLOUDY    33  26  75 W20G32    29.57R WCI  21
LACON*         CLOUDY    31  25  78 W14G24    29.53R WCI  21
LINCOLN*       CLOUDY    34  28  77 W12G24    29.60R WCI  25
SPRINGFIELD    CLOUDY    34  28  79 W18G33    29.63R WCI  23
TAYLORVILLE    CLOUDY    34  28  80 W18G26    29.66R WCI  23
$$

ILZ033-039-045-046-055>057-062-063-242000-
EAST-CENTRAL ILLINOIS

CITY           SKY/WX    TMP DP  RH WIND       PRES   REMARKS
CHAMPAIGN      CLOUDY    34  30  85 W29G38    29.60R WCI  20
DANVILLE*      CLOUDY    34  30  86 SW24G31   29.55R WCI  21
RANTOUL*       CLOUDY    35  31  84 SW25G37   29.57R WCI  23
MATTOON        CLOUDY    36  27  69 W15G23    29.64R WCI  27
PARIS*         CLOUDY    37  32  83 W23G30    29.64R WCI  25
$$

ILZ079-100>102-242000-
SOUTHWEST ILLINOIS

CITY           SKY/WX    TMP DP  RH WIND       PRES   REMARKS
BELLEVILLE     CLOUDY    41  29  64 W20G28    29.72R
CAHOKIA*       CLOUDY    42  29  59 W13G24    29.72R
SPARTA*        CLOUDY    44  31  60 W17       29.73R
$$

ILZ064>066-069>071-074>076-080>082-084>086-088>090-092>094-242000-
SOUTH-CENTRAL ILLINOIS

CITY           SKY/WX    TMP DP  RH WIND       PRES   REMARKS
CARBONDALE     PTSUNNY   47  32  56 W13       29.74R
CAIRO*         SUNNY     52  32  46 SW22G30   29.79R
EFFINGHAM*     CLOUDY    39  28  63 SW16      29.67R WCI  30
MARION         PTSUNNY   48  34  57 W9        29.75R
MT. VERNON     CLOUDY    43  28  56 W15G29    29.73R
CENTRALIA*     CLOUDY    41  30  64 W21G29    29.71R
SALEM*           N/A     42  32  67 W25G35    29.70R
METROPOLIS*    PTSUNNY   51  37  57 SW18G25   29.77R
$$

ILZ067-068-072-073-078-083-087-091-242000-
SOUTHEAST ILLINOIS

CITY           SKY/WX    TMP DP  RH WIND       PRES   REMARKS
LAWRENCEVILLE  CLOUDY    42  30  62 W23G40    29.71R
FLORA*         MOSUNNY   40  30  66 W17G26    29.70R
FAIRFIELD*     CLOUDY    43  30  61 SW20G29   29.72R
HARRISBURG*    CLOUDY    46  35  64 W9G17     29.75R
ROBINSON*      CLOUDY    40  32  75 W22G31    29.70R
CARMI*         PTSUNNY   47  36  65 SW12      29.74R
$$

ABBREVIATIONS USED IN REMARKS
   TC - TEMPERATURE IN CELSIUS
  WCI - WIND CHILL INDEX
   HX - HEAT INDEX
  VSB - VISIBILITY
$$




USA.gov is the U.S. government's official web portal to all federal, state and local government web resources and services.